Time,TemperatureF,DewpointF,PressureIn,WindDirection,WindDirectionDegrees,WindSpeedMPH,WindSpeedGustMPH,Humidity,HourlyPrecipIn,Conditions,Clouds,dailyrainin,SolarRadiationWatts/m^2,SoftwareType,DateUTC
2013-04-28 00:03:00,48.0,-99.9,-100.00,South,175,11.0,26.0,100,0.04,,,0.19,0.000000,,2013-04-28 04:03:00,
2013-04-28 00:10:00,46.0,45.0,-100.00,South,171,9.0,20.0,97,0.01,,,0.20,0.000000,,2013-04-28 04:10:00,
2013-04-28 00:32:00,46.0,45.0,-100.00,South,171,9.0,20.0,97,0.01,,,0.20,0.000000,,2013-04-28 04:32:00,
2013-04-28 00:43:00,46.0,45.0,-100.00,South,171,9.0,20.0,97,0.01,,,0.20,0.000000,,2013-04-28 04:43:00,
2013-04-28 00:53:00,46.0,45.0,-100.00,South,171,9.0,20.0,97,0.01,,,0.20,0.000000,,2013-04-28 04:53:00,
2013-04-28 01:02:00,46.0,45.0,-100.00,South,171,9.0,20.0,97,0.01,,,0.20,0.000000,,2013-04-28 05:02:00,
2013-04-28 01:10:00,46.0,45.0,-100.00,South,173,5.0,13.0,98,0.00,,,0.20,0.000000,,2013-04-28 05:10:00,
2013-04-28 01:32:00,46.0,45.0,-100.00,South,173,5.0,13.0,98,0.00,,,0.20,0.000000,,2013-04-28 05:32:00,
2013-04-28 01:42:00,46.0,45.0,-100.00,South,173,5.0,13.0,98,0.00,,,0.20,0.000000,,2013-04-28 05:42:00,
2013-04-28 01:52:00,46.0,45.0,-100.00,South,173,5.0,13.0,98,0.00,,,0.20,0.000000,,2013-04-28 05:52:00,
2013-04-28 02:01:00,46.0,45.0,-100.00,South,173,5.0,13.0,98,0.00,,,0.20,0.000000,,2013-04-28 06:01:00,
2013-04-28 02:10:00,46.0,45.0,-100.00,South,170,7.0,14.0,98,0.01,,,-99.99,0.000000,,2013-04-28 06:10:00,
2013-04-28 02:32:00,46.0,45.0,-100.00,South,170,7.0,14.0,98,0.01,,,-99.99,0.000000,,2013-04-28 06:32:00,
2013-04-28 02:42:00,46.0,45.0,-100.00,South,170,7.0,14.0,98,0.01,,,-99.99,0.000000,,2013-04-28 06:42:00,
2013-04-28 02:52:00,46.0,45.0,-100.00,South,170,7.0,14.0,98,0.01,,,-99.99,0.000000,,2013-04-28 06:52:00,
2013-04-28 03:02:00,46.0,45.0,-100.00,South,170,7.0,14.0,98,0.01,,,-99.99,0.000000,,2013-04-28 07:02:00,
2013-04-28 03:10:00,46.0,45.0,-100.00,ENE,58,6.0,19.0,97,0.02,,,0.23,0.000000,,2013-04-28 07:10:00,
2013-04-28 03:42:00,46.0,45.0,-100.00,ENE,58,6.0,19.0,97,0.02,,,0.23,0.000000,,2013-04-28 07:42:00,
2013-04-28 03:52:00,46.0,45.0,-100.00,ENE,58,6.0,19.0,97,0.02,,,0.23,0.000000,,2013-04-28 07:52:00,
2013-04-28 04:02:00,46.0,45.0,-100.00,ENE,58,6.0,19.0,97,0.02,,,0.23,0.000000,,2013-04-28 08:02:00,
2013-04-28 04:10:00,46.0,45.0,-100.00,South,174,7.0,21.0,98,0.03,,,0.26,0.000000,,2013-04-28 08:10:00,
2013-04-28 04:32:00,46.0,45.0,-100.00,South,174,7.0,21.0,98,0.03,,,0.26,0.000000,,2013-04-28 08:32:00,
2013-04-28 04:42:00,46.0,45.0,-100.00,South,174,7.0,21.0,98,0.03,,,0.26,0.000000,,2013-04-28 08:42:00,
2013-04-28 04:52:00,46.0,45.0,-100.00,South,174,7.0,21.0,98,0.03,,,0.26,0.000000,,2013-04-28 08:52:00,
2013-04-28 05:01:00,46.0,45.0,-100.00,South,174,7.0,21.0,98,0.03,,,0.26,0.000000,,2013-04-28 09:01:00,
2013-04-28 05:10:00,46.0,45.0,-100.00,SSE,147,4.0,42.0,97,0.00,,,0.26,0.000000,,2013-04-28 09:10:00,
2013-04-28 05:33:00,46.0,45.0,-100.00,SSE,147,4.0,42.0,97,0.00,,,0.26,0.000000,,2013-04-28 09:33:00,
2013-04-28 05:42:00,46.0,45.0,-100.00,SSE,147,4.0,42.0,97,0.00,,,0.26,0.000000,,2013-04-28 09:42:00,
2013-04-28 05:53:00,46.0,45.0,-100.00,SSE,147,4.0,42.0,97,0.00,,,0.26,0.000000,,2013-04-28 09:53:00,
2013-04-28 06:03:00,46.0,45.0,-100.00,SSE,147,4.0,42.0,97,0.00,,,0.26,0.000000,,2013-04-28 10:03:00,
2013-04-28 06:10:00,46.0,45.0,-100.00,SSW,197,7.0,24.0,95,0.00,,,0.26,0.000000,,2013-04-28 10:10:00,
2013-04-28 06:32:00,46.0,45.0,-100.00,SSW,197,7.0,24.0,95,0.00,,,0.26,0.000000,,2013-04-28 10:32:00,
2013-04-28 06:42:00,46.0,45.0,-100.00,SSW,197,7.0,24.0,95,0.00,,,0.26,0.000000,,2013-04-28 10:42:00,
2013-04-28 06:53:00,46.0,45.0,-100.00,SSW,197,7.0,24.0,95,0.00,,,0.26,0.000000,,2013-04-28 10:53:00,
2013-04-28 07:02:00,46.0,45.0,-100.00,SSW,197,7.0,24.0,95,0.00,,,0.26,0.000000,,2013-04-28 11:02:00,
2013-04-28 07:10:00,46.0,44.0,-100.00,South,179,9.0,29.0,91,0.00,,,0.26,0.000000,,2013-04-28 11:10:00,
2013-04-28 07:32:00,46.0,44.0,-100.00,South,179,9.0,29.0,91,0.00,,,0.26,0.000000,,2013-04-28 11:32:00,
2013-04-28 07:42:00,46.0,44.0,-100.00,South,179,9.0,29.0,91,0.00,,,0.26,0.000000,,2013-04-28 11:42:00,
2013-04-28 07:52:00,46.0,44.0,-100.00,South,179,9.0,29.0,91,0.00,,,0.26,0.000000,,2013-04-28 11:52:00,
2013-04-28 08:02:00,46.0,44.0,-100.00,South,179,9.0,29.0,91,0.00,,,0.26,0.000000,,2013-04-28 12:02:00,
2013-04-28 08:10:00,46.0,44.0,-100.00,South,175,14.0,26.0,94,0.00,,,0.26,20.000000,,2013-04-28 12:10:00,
2013-04-28 08:42:00,46.0,44.0,-100.00,South,175,14.0,26.0,94,0.00,,,0.26,20.000000,,2013-04-28 12:42:00,
2013-04-28 08:52:00,46.0,44.0,-100.00,South,175,14.0,26.0,94,0.00,,,0.26,20.000000,,2013-04-28 12:52:00,
2013-04-28 09:02:00,46.0,44.0,-100.00,South,175,14.0,26.0,94,0.00,,,0.26,20.000000,,2013-04-28 13:02:00,
2013-04-28 09:10:00,47.0,45.0,-100.00,South,177,10.0,22.0,91,0.06,,,0.32,31.000000,,2013-04-28 13:10:00,
2013-04-28 09:32:00,47.0,45.0,-100.00,South,177,10.0,22.0,91,0.06,,,0.32,31.000000,,2013-04-28 13:32:00,
2013-04-28 09:42:00,47.0,45.0,-100.00,South,177,10.0,22.0,91,0.06,,,0.32,31.000000,,2013-04-28 13:42:00,
2013-04-28 09:52:00,47.0,45.0,-100.00,South,177,10.0,22.0,91,0.06,,,0.32,31.000000,,2013-04-28 13:52:00,
2013-04-28 10:02:00,47.0,45.0,-100.00,South,177,10.0,22.0,91,0.06,,,0.32,31.000000,,2013-04-28 14:02:00,
2013-04-28 10:10:00,45.0,43.0,-100.00,South,182,6.0,18.0,92,0.13,,,0.45,45.000000,,2013-04-28 14:10:00,
2013-04-28 10:32:00,45.0,43.0,-100.00,South,182,6.0,18.0,92,0.13,,,0.45,45.000000,,2013-04-28 14:32:00,
2013-04-28 10:42:00,45.0,43.0,-100.00,South,182,6.0,18.0,92,0.13,,,0.45,45.000000,,2013-04-28 14:42:00,
2013-04-28 10:52:00,45.0,43.0,-100.00,South,182,6.0,18.0,92,0.13,,,0.45,45.000000,,2013-04-28 14:52:00,
2013-04-28 11:02:00,45.0,43.0,-100.00,South,182,6.0,18.0,92,0.13,,,0.45,45.000000,,2013-04-28 15:02:00,
2013-04-28 11:10:00,45.0,44.0,-100.00,West,280,3.0,7.0,96,0.05,,,0.50,66.000000,,2013-04-28 15:10:00,
2013-04-28 11:33:00,45.0,44.0,-100.00,West,280,3.0,7.0,96,0.05,,,0.50,66.000000,,2013-04-28 15:33:00,
2013-04-28 11:43:00,45.0,44.0,-100.00,West,280,3.0,7.0,96,0.05,,,0.50,66.000000,,2013-04-28 15:43:00,
2013-04-28 11:53:00,45.0,44.0,-100.00,West,280,3.0,7.0,96,0.05,,,0.50,66.000000,,2013-04-28 15:53:00,
2013-04-28 12:03:00,45.0,44.0,-100.00,West,280,3.0,7.0,96,0.05,,,0.50,66.000000,,2013-04-28 16:03:00,
2013-04-28 12:10:00,49.0,48.0,-100.00,West,279,4.0,17.0,97,0.16,,,0.66,158.000000,,2013-04-28 16:10:00,
2013-04-28 12:43:00,49.0,48.0,-100.00,West,279,4.0,17.0,97,0.16,,,0.66,158.000000,,2013-04-28 16:43:00,
2013-04-28 12:52:00,49.0,48.0,-100.00,West,279,4.0,17.0,97,0.16,,,0.66,158.000000,,2013-04-28 16:52:00,
2013-04-28 13:02:00,49.0,48.0,-100.00,West,279,4.0,17.0,97,0.16,,,0.66,158.000000,,2013-04-28 17:02:00,
2013-04-28 13:10:00,46.0,44.0,-100.00,SW,224,7.0,15.0,93,0.07,,,0.73,117.000000,,2013-04-28 17:10:00,
2013-04-28 13:32:00,46.0,44.0,-100.00,SW,224,7.0,15.0,93,0.07,,,0.73,117.000000,,2013-04-28 17:32:00,
2013-04-28 13:43:00,46.0,44.0,-100.00,SW,224,7.0,15.0,93,0.07,,,0.73,117.000000,,2013-04-28 17:43:00,
2013-04-28 13:52:00,46.0,44.0,-100.00,SW,224,7.0,15.0,93,0.07,,,0.73,117.000000,,2013-04-28 17:52:00,
2013-04-28 14:02:00,46.0,44.0,-100.00,SW,224,7.0,15.0,93,0.07,,,0.73,117.000000,,2013-04-28 18:02:00,
2013-04-28 14:10:00,46.0,45.0,-100.00,SE,140,4.0,14.0,97,0.23,,,0.96,65.000000,,2013-04-28 18:10:00,
2013-04-28 14:42:00,46.0,45.0,-100.00,SE,140,4.0,14.0,97,0.23,,,0.96,65.000000,,2013-04-28 18:42:00,
2013-04-28 14:52:00,46.0,45.0,-100.00,SE,140,4.0,14.0,97,0.23,,,0.96,65.000000,,2013-04-28 18:52:00,
2013-04-28 15:02:00,46.0,45.0,-100.00,SE,140,4.0,14.0,97,0.23,,,0.96,65.000000,,2013-04-28 19:02:00,
2013-04-28 15:10:00,49.0,48.0,-100.00,SE,145,3.0,12.0,97,0.06,,,1.02,181.000000,,2013-04-28 19:10:00,
2013-04-28 15:32:00,49.0,48.0,-100.00,SE,145,3.0,12.0,97,0.06,,,1.02,181.000000,,2013-04-28 19:32:00,
2013-04-28 15:42:00,49.0,48.0,-100.00,SE,145,3.0,12.0,97,0.06,,,1.02,181.000000,,2013-04-28 19:42:00,
2013-04-28 15:52:00,49.0,48.0,-100.00,SE,145,3.0,12.0,97,0.06,,,1.02,181.000000,,2013-04-28 19:52:00,
2013-04-28 16:02:00,49.0,48.0,-100.00,SE,145,3.0,12.0,97,0.06,,,1.02,181.000000,,2013-04-28 20:02:00,
2013-04-28 16:10:00,50.0,48.0,-100.00,South,175,4.0,14.0,93,0.01,,,1.03,251.000000,,2013-04-28 20:10:00,
2013-04-28 16:33:00,50.0,48.0,-100.00,South,175,4.0,14.0,93,0.01,,,1.03,251.000000,,2013-04-28 20:33:00,
2013-04-28 16:42:00,50.0,48.0,-100.00,South,175,4.0,14.0,93,0.01,,,1.03,251.000000,,2013-04-28 20:42:00,
2013-04-28 16:52:00,50.0,48.0,-100.00,South,175,4.0,14.0,93,0.01,,,1.03,251.000000,,2013-04-28 20:52:00,
2013-04-28 17:01:00,50.0,48.0,-100.00,South,175,4.0,14.0,93,0.01,,,1.03,251.000000,,2013-04-28 21:01:00,
2013-04-28 17:10:00,50.0,48.0,-100.00,South,183,11.0,18.0,94,0.02,,,1.05,163.000000,,2013-04-28 21:10:00,
2013-04-28 17:43:00,50.0,48.0,-100.00,South,183,11.0,18.0,94,0.02,,,1.05,163.000000,,2013-04-28 21:43:00,
2013-04-28 17:53:00,50.0,48.0,-100.00,South,183,11.0,18.0,94,0.02,,,1.05,163.000000,,2013-04-28 21:53:00,
2013-04-28 18:03:00,50.0,48.0,-100.00,South,183,11.0,18.0,94,0.02,,,1.05,163.000000,,2013-04-28 22:03:00,
2013-04-28 18:10:00,48.0,46.0,-100.00,South,172,10.0,22.0,94,0.01,,,1.05,131.000000,,2013-04-28 22:10:00,
2013-04-28 18:42:00,48.0,46.0,-100.00,South,172,10.0,22.0,94,0.01,,,1.05,131.000000,,2013-04-28 22:42:00,
2013-04-28 18:52:00,48.0,46.0,-100.00,South,172,10.0,22.0,94,0.01,,,1.05,131.000000,,2013-04-28 22:52:00,
2013-04-28 19:02:00,48.0,46.0,-100.00,South,172,10.0,22.0,94,0.01,,,1.05,131.000000,,2013-04-28 23:02:00,
2013-04-28 19:10:00,47.0,47.0,-100.00,South,169,12.0,22.0,100,0.00,,,1.05,40.000000,,2013-04-28 23:10:00,
2013-04-28 19:42:00,47.0,47.0,-100.00,South,169,12.0,22.0,100,0.00,,,1.05,40.000000,,2013-04-28 23:42:00,
2013-04-28 19:52:00,47.0,47.0,-100.00,South,169,12.0,22.0,100,0.00,,,1.05,40.000000,,2013-04-28 23:52:00,
2013-04-28 20:01:00,47.0,47.0,-100.00,South,169,12.0,22.0,100,0.00,,,1.05,40.000000,,2013-04-29 00:01:00,
2013-04-28 21:10:00,47.0,47.0,-100.00,SSE,160,13.0,29.0,100,-99.99,,,1.06,0.000000,,2013-04-29 01:10:00,
2013-04-28 21:32:00,47.0,47.0,-100.00,SSE,160,13.0,29.0,100,-99.99,,,1.06,0.000000,,2013-04-29 01:32:00,
2013-04-28 21:42:00,47.0,47.0,-100.00,SSE,160,13.0,29.0,100,-99.99,,,1.06,0.000000,,2013-04-29 01:42:00,
2013-04-28 21:52:00,47.0,47.0,-100.00,SSE,160,13.0,29.0,100,-99.99,,,1.06,0.000000,,2013-04-29 01:52:00,
2013-04-28 22:02:00,47.0,47.0,-100.00,SSE,160,13.0,29.0,100,-99.99,,,1.06,0.000000,,2013-04-29 02:02:00,
2013-04-28 22:10:00,49.0,49.0,-100.00,SSE,167,10.0,30.0,100,0.02,,,1.03,0.000000,,2013-04-29 02:10:00,
2013-04-28 22:42:00,49.0,49.0,-100.00,SSE,167,10.0,30.0,100,0.02,,,1.03,0.000000,,2013-04-29 02:42:00,
2013-04-28 22:52:00,49.0,49.0,-100.00,SSE,167,10.0,30.0,100,0.02,,,1.03,0.000000,,2013-04-29 02:52:00,
2013-04-28 23:01:00,49.0,49.0,-100.00,SSE,167,10.0,30.0,100,0.02,,,1.03,0.000000,,2013-04-29 03:01:00,
2013-04-28 23:10:00,49.0,49.0,-100.00,South,176,17.0,30.0,100,0.00,,,0.99,0.000000,,2013-04-29 03:10:00,
2013-04-28 23:33:00,49.0,49.0,-100.00,South,176,17.0,30.0,100,0.00,,,0.99,0.000000,,2013-04-29 03:33:00,
2013-04-28 23:43:00,49.0,49.0,-100.00,South,176,17.0,30.0,100,0.00,,,0.99,0.000000,,2013-04-29 03:43:00,
2013-04-28 23:53:00,49.0,49.0,-100.00,South,176,17.0,30.0,100,0.00,,,0.99,0.000000,,2013-04-29 03:53:00,